Total_Precipitation_Accumulation
0.00 0.00 0.00 0.02 0.03 0.07 0.18 0.23 0.06 0.01 0.00 0.00 0.00 0.00 0.00 0.00 0.01 0.02 0.00 0.00 0.00 0.00 0.00 0.00 0.00 0.01 0.03 0.05 0.05 0.06 0.05 0.02 0.01 0.01 0.03 0.06 0.03 0.01 0.00 0.00 0.00 0.00 0.00 0.00 0.01 0.01 0.01 0.00 0.00
0.00 0.00 0.00 0.00 0.02 0.05 0.18 0.26 0.08 0.03 0.01 0.00 0.00 0.00 0.00 0.00 0.00 0.00 0.00 0.00 0.00 0.00 0.00 0.00 0.00 0.01 0.02 0.03 0.05 0.07 0.06 0.03 0.02 0.04 0.06 0.07 0.04 0.01 0.00 0.00 0.00 0.00 0.00 0.00 0.00 0.01 0.00 0.00 0.00
0.00 0.00 0.00 0.00 0.05 0.05 0.09 0.14 0.03 0.01 0.00 0.00 0.00 0.00 0.00 0.00 0.00 0.00 0.00 0.00 0.00 0.00 0.00 0.01 0.01 0.01 0.02 0.02 0.03 0.07 0.09 0.06 0.05 0.08 0.09 0.07 0.06 0.04 0.02 0.02 0.02 0.02 0.00 0.00 0.00 0.01 0.01 0.00 0.00
0.00 0.00 0.00 0.00 0.03 0.04 0.05 0.04 0.03 0.02 0.00 0.00 0.00 0.00 0.00 0.00 0.00 0.00 0.00 0.00 0.00 0.00 0.00 0.00 0.02 0.02 0.02 0.02 0.02 0.04 0.09 0.08 0.06 0.08 0.11 0.09 0.11 0.12 0.07 0.03 0.04 0.05 0.02 0.01 0.01 0.00 0.00 0.01 0.01
0.00 0.00 0.00 0.00 0.02 0.04 0.06 0.03 0.02 0.01 0.00 0.00 0.00 0.00 0.00 0.00 0.00 0.00 0.00 0.00 0.00 0.00 0.00 0.00 0.02 0.02 0.01 0.02 0.03 0.03 0.05 0.06 0.04 0.05 0.05 0.04 0.08 0.15 0.11 0.07 0.05 0.05 0.03 0.02 0.01 0.01 0.01 0.01 0.01
0.00 0.00 0.00 0.00 0.01 0.03 0.05 0.03 0.02 0.02 0.00 0.00 0.00 0.00 0.00 0.00 0.00 0.00 0.00 0.00 0.00 0.00 0.00 0.00 0.01 0.01 0.01 0.00 0.02 0.04 0.04 0.02 0.01 0.01 0.00 0.01 0.02 0.03 0.06 0.07 0.06 0.04 0.02 0.02 0.01 0.01 0.01 0.01 0.02
0.00 0.00 0.00 0.00 0.00 0.00 0.02 0.02 0.02 0.01 0.00 0.00 0.00 0.00 0.00 0.00 0.00 0.00 0.00 0.00 0.00 0.00 0.00 0.00 0.00 0.01 0.00 0.00 0.01 0.02 0.02 0.02 0.01 0.00 0.00 0.01 0.01 0.02 0.04 0.05 0.05 0.05 0.04 0.03 0.02 0.02 0.02 0.02 0.02
0.00 0.00 0.00 0.00 0.00 0.00 0.00 0.01 0.01 0.01 0.01 0.01 0.00 0.01 0.01 0.00 0.00 0.00 0.00 0.00 0.00 0.00 0.00 0.00 0.00 0.01 0.01 0.01 0.01 0.02 0.02 0.01 0.01 0.00 0.00 0.00 0.01 0.01 0.03 0.03 0.03 0.06 0.07 0.04 0.03 0.02 0.02 0.03 0.02
0.00 0.00 0.00 0.00 0.00 0.00 0.00 0.01 0.01 0.01 0.02 0.02 0.00 0.01 0.01 0.00 0.00 0.00 0.00 0.00 0.00 0.00 0.00 0.00 0.00 0.01 0.01 0.01 0.00 0.01 0.01 0.01 0.01 0.02 0.02 0.02 0.01 0.04 0.07 0.05 0.05 0.06 0.07 0.07 0.06 0.07 0.07 0.06 0.03
0.00 0.00 0.00 0.00 0.00 0.00 0.00 0.01 0.01 0.01 0.02 0.01 0.01 0.01 0.01 0.00 0.00 0.00 0.00 0.00 0.00 0.00 0.00 0.00 0.00 0.00 0.01 0.00 0.00 0.00 0.00 0.00 0.00 0.01 0.04 0.07 0.10 0.10 0.04 0.06 0.09 0.15 0.20 0.16 0.14 0.16 0.11 0.10 0.08
0.00 0.00 0.00 0.00 0.00 0.00 0.00 0.00 0.00 0.01 0.03 0.03 0.04 0.03 0.01 0.00 0.00 0.00 0.00 0.00 0.00 0.00 0.00 0.00 0.00 0.00 0.00 0.00 0.00 0.00 0.00 0.00 0.00 0.00 0.03 0.06 0.06 0.03 0.00 0.03 0.08 0.13 0.20 0.18 0.26 0.31 0.27 0.27 0.24
0.00 0.00 0.00 0.00 0.00 0.00 0.00 0.00 0.00 0.02 0.07 0.12 0.12 0.07 0.01 0.00 0.00 0.00 0.00 0.00 0.00 0.00 0.00 0.00 0.00 0.00 0.00 0.00 0.00 0.00 0.00 0.00 0.00 0.00 0.00 0.02 0.02 0.01 0.02 0.08 0.13 0.15 0.15 0.24 0.21 0.29 0.26 0.15 0.10
0.00 0.00 0.00 0.00 0.00 0.00 0.00 0.00 0.01 0.01 0.04 0.17 0.24 0.17 0.03 0.00 0.00 0.00 0.00 0.00 0.00 0.00 0.00 0.00 0.00 0.00 0.00 0.00 0.00 0.00 0.00 0.00 0.00 0.00 0.00 0.00 0.02 0.04 0.08 0.07 0.10 0.05 0.10 0.16 0.15 0.11 0.16 0.19 0.10
0.00 0.00 0.00 0.00 0.00 0.00 0.00 0.00 0.00 0.02 0.03 0.13 0.22 0.20 0.06 0.01 0.00 0.00 0.00 0.00 0.00 0.00 0.00 0.00 0.00 0.00 0.00 0.00 0.00 0.00 0.00 0.00 0.00 0.00 0.00 0.00 0.03 0.09 0.15 0.14 0.14 0.11 0.13 0.19 0.21 0.18 0.33 0.25 0.16
0.00 0.00 0.00 0.00 0.00 0.00 0.00 0.00 0.01 0.03 0.02 0.08 0.17 0.17 0.07 0.02 0.01 0.00 0.00 0.00 0.00 0.00 0.00 0.01 0.02 0.00 0.00 0.00 0.00 0.01 0.02 0.01 0.01 0.01 0.01 0.03 0.05 0.13 0.21 0.25 0.23 0.25 0.23 0.29 0.30 0.34 0.40 0.24 0.21
0.00 0.00 0.00 0.00 0.00 0.00 0.00 0.00 0.00 0.00 0.01 0.03 0.11 0.20 0.15 0.12 0.12 0.07 0.02 0.01 0.01 0.00 0.01 0.03 0.06 0.02 0.01 0.02 0.02 0.04 0.05 0.04 0.04 0.06 0.07 0.11 0.16 0.22 0.33 0.35 0.30 0.40 0.43 0.43 0.46 0.48 0.44 0.37 0.29
0.00 0.00 0.00 0.00 0.00 0.00 0.00 0.00 0.00 0.01 0.02 0.05 0.10 0.20 0.30 0.36 0.42 0.36 0.19 0.09 0.05 0.03 0.03 0.04 0.05 0.05 0.08 0.10 0.09 0.12 0.15 0.13 0.14 0.19 0.21 0.27 0.31 0.35 0.45 0.42 0.47 0.51 0.50 0.51 0.38 0.48 0.47 0.47 0.41
0.00 0.00 0.00 0.00 0.00 0.00 0.00 0.00 0.00 0.00 0.02 0.07 0.18 0.34 0.49 0.72 0.90 0.71 0.42 0.19 0.12 0.11 0.11 0.16 0.20 0.21 0.25 0.26 0.23 0.26 0.28 0.26 0.30 0.36 0.44 0.49 0.48 0.49 0.57 0.54 0.56 0.55 0.57 0.56 0.54 0.55 0.57 0.55 0.51
0.00 0.00 0.00 0.00 0.00 0.00 0.00 0.00 0.00 0.00 0.01 0.04 0.11 0.32 0.56 0.59 0.68 0.59 0.36 0.25 0.24 0.35 0.39 0.47 0.55 0.54 0.56 0.56 0.55 0.60 0.61 0.61 0.62 0.58 0.55 0.55 0.52 0.54 0.63 0.55 0.60 0.53 0.49 0.54 0.57 0.62 0.57 0.57 0.64
0.00 0.00 0.00 0.00 0.00 0.00 0.00 0.00 0.00 0.01 0.01 0.02 0.04 0.10 0.23 0.33 0.37 0.39 0.34 0.34 0.51 0.71 0.74 0.78 0.78 0.78 0.88 1.00 1.10 1.18 1.23 1.08 0.94 0.86 0.77 0.69 0.65 0.64 0.62 0.60 0.55 0.51 0.55 0.63 0.66 0.76 0.69 0.53 0.59
0.00 0.00 0.00 0.00 0.00 0.00 0.00 0.00 0.00 0.01 0.02 0.06 0.10 0.16 0.22 0.30 0.37 0.43 0.45 0.49 0.58 0.66 0.74 0.87 0.94 0.99 1.09 1.24 1.35 1.38 1.38 1.24 1.14 1.03 0.94 0.81 0.71 0.64 0.62 0.60 0.58 0.64 0.67 0.70 0.71 0.73 0.73 0.60 0.59
0.00 0.00 0.00 0.00 0.00 0.00 0.00 0.00 0.00 0.00 0.03 0.06 0.12 0.20 0.27 0.32 0.36 0.45 0.51 0.52 0.55 0.59 0.70 0.88 1.00 1.05 1.14 1.25 1.32 1.30 1.29 1.17 1.14 1.14 1.04 0.92 0.79 0.72 0.65 0.60 0.57 0.56 0.59 0.62 0.56 0.64 0.77 0.73 0.61
0.00 0.00 0.00 0.00 0.00 0.00 0.00 0.00 0.00 0.00 0.01 0.05 0.13 0.22 0.33 0.38 0.38 0.40 0.47 0.49 0.50 0.58 0.70 0.80 0.89 0.94 0.98 1.00 1.04 1.07 1.06 1.06 1.06 1.00 0.91 0.82 0.74 0.70 0.63 0.55 0.51 0.47 0.47 0.55 0.59 0.66 0.70 0.73 0.69
0.00 0.00 0.00 0.00 0.00 0.00 0.00 0.00 0.00 0.00 0.01 0.06 0.20 0.31 0.44 0.52 0.53 0.54 0.55 0.56 0.57 0.66 0.76 0.81 0.82 0.80 0.78 0.76 0.79 0.83 0.85 0.89 0.89 0.86 0.84 0.80 0.75 0.68 0.63 0.60 0.55 0.50 0.52 0.59 0.62 0.63 0.61 0.65 0.68
0.00 0.01 0.06 0.03 0.01 0.01 0.01 0.01 0.01 0.02 0.02 0.07 0.24 0.44 0.56 0.55 0.52 0.51 0.52 0.55 0.58 0.58 0.58 0.61 0.58 0.54 0.50 0.48 0.50 0.53 0.56 0.60 0.65 0.68 0.67 0.61 0.54 0.51 0.49 0.46 0.50 0.50 0.54 0.55 0.53 0.59 0.63 0.68 0.69
0.02 0.05 0.20 0.18 0.05 0.02 0.02 0.01 0.07 0.09 0.12 0.24 0.38 0.49 0.51 0.46 0.43 0.41 0.39 0.38 0.40 0.40 0.39 0.42 0.43 0.46 0.45 0.41 0.39 0.34 0.31 0.33 0.35 0.40 0.45 0.44 0.40 0.38 0.38 0.41 0.48 0.50 0.52 0.51 0.53 0.53 0.55 0.61 0.64
0.05 0.09 0.11 0.24 0.18 0.12 0.02 0.02 0.09 0.15 0.29 0.52 0.68 0.68 0.60 0.46 0.38 0.33 0.29 0.26 0.25 0.27 0.31 0.36 0.40 0.43 0.47 0.46 0.39 0.33 0.27 0.24 0.25 0.28 0.35 0.38 0.39 0.35 0.36 0.39 0.45 0.53 0.60 0.61 0.60 0.59 0.60 0.67 0.70
0.03 0.05 0.07 0.20 0.21 0.19 0.06 0.04 0.13 0.35 0.49 0.61 0.71 0.65 0.49 0.37 0.29 0.24 0.21 0.19 0.18 0.20 0.25 0.32 0.37 0.37 0.38 0.39 0.36 0.29 0.24 0.23 0.24 0.25 0.27 0.28 0.29 0.30 0.34 0.39 0.44 0.44 0.44 0.45 0.46 0.54 0.59 0.63 0.65
0.05 0.08 0.15 0.23 0.22 0.25 0.21 0.17 0.22 0.36 0.51 0.60 0.61 0.50 0.35 0.26 0.19 0.17 0.17 0.18 0.18 0.17 0.22 0.29 0.36 0.39 0.40 0.40 0.39 0.32 0.26 0.23 0.22 0.21 0.20 0.24 0.25 0.27 0.31 0.35 0.32 0.29 0.25 0.23 0.25 0.31 0.36 0.39 0.38
0.03 0.07 0.16 0.26 0.24 0.24 0.26 0.19 0.13 0.16 0.24 0.32 0.34 0.30 0.25 0.20 0.18 0.20 0.22 0.22 0.20 0.21 0.26 0.32 0.37 0.42 0.46 0.48 0.49 0.45 0.38 0.33 0.29 0.24 0.20 0.17 0.18 0.21 0.23 0.24 0.23 0.19 0.17 0.18 0.19 0.20 0.23 0.24 0.21